FENGYUN 1C DEB, 36167

Orbit data source: Space-Track

FENGYUN 1C DEB, 36167 is space debris in SSO originally from a launch on Mon, 10 May 1999 UTC launched from the Taiyaun Space Center, China (TSC). Fengyun 1C debris stems from the Chinese weather satellite Fengyun-1C, which was intentionally destroyed by a Chinese anti-satellite missile in 2007. This event dramatically increased the amount of space debris, with thousands of trackable fragments posing hazards to satellites and human spaceflight. The Fengyun 1C debris cloud has become a focal point in discussions about space sustainability and the need for international regulations to prevent the creation of new debris.

Loading next visibility...
Identifier
36167, 1999-025DSQ
Orbit
SSO
Country
Flag of CNCN / PRC
Related business
Manufacturer
Unknown
Mission
Spacecraft
Bus & Motor
Unknown
Mass
Unknown
Launch date (UTC)
1999-05-10 (27 years ago)
Launch vehicle
Unknown
Launch site
Taiyaun Space Center, China (TSC)
Object type
Payload
Rocket body
Debris
Shape & HBR
Unknown shape, 0.1 m
Radar Cross Section
Small (<0.1 m²)

Expand to show TLE details & history
Last TLE update: 5 days ago

TLE from 5 days ago
0 FENGYUN 1C DEB
1 36167U 99025DSQ 26165.00390603  .00003445  00000-0  86289-3 0  9991
2 36167  98.8121  85.5386 0069942  51.7391 309.0067 14.50641817699359
Epoch: 2026-06-14T00:05Z
TLE epoch observation values (Epoch: 2026-06-14T00:05:37.480Z)
Latitude
-0.00005°
Longitude
-178.17844°
Altitude
695.448 km
Speed
7.525 km/s
True Right ascension
05h 42m 09s
True Declination
0° 00' 00"
Sunlit
Object was in daylight at epoch
Visualization orbit readout
Latitude
Unknown
Longitude
Unknown
Altitude
Unknown
Speed
Unknown
Apparent Right ascension
Unknown
Apparent Declination
Unknown
Sunlit
N/A
Visualization observer readout
Local Sidereal Time
05:55:25
Azimuth
Unknown
Elevation
Unknown
Doppler factor
Unknown
Orbital elements
Apogee altitude
770.326 km
Perigee altitude
671.025 km
Semi-major axis
7,098.813 km
Eccentricity
0.00699
Inclination
98.8121°
RAAN
85.5386°
Arg. of periapsis
51.7391°
True anomaly
308.38046°
Mean anomaly
309.0067°
Eccentric anomaly
308.69393°
Mean motion
3.62881 °/min
Orbital period
99.21 mins
BSTAR
0.00086289
Loading maneuver chart data...
Computing Atmospheric mass density...

Documentation

Showing up to 5 results
|